Regional Weather Roundup
Issued by NWS Pendleton, OR

Home | Current Version | Previous Version | Text Only | Print | Product List | Glossary On
Versions: 1 2 3 4 5 6 7 8 9 10 11 12 13 14 15 16 17 18 19 20 21 22 23 24 25 26 27 28 29 30 31 32 33 34 35 36 37 38 39 40 41 42 43 44 45 46 47 48 49 50
000
ASUS46 KPDT 270410
RWRPDT
PENDLETON REGIONAL WEATHER ROUNDUP
NATIONAL WEATHER SERVICE PENDLETON OREGON
800 PM PST MON JAN 26 2015

NOTE: FAIR INDICATES FEW OR NO CLOUDS BELOW 12,000 FEET WITH NO
SIGNIFICANT WEATHER AND/OR OBSTRUCTIONS TO VISIBILITY.

# INDICATES UNOFFICIAL STATION AND DATA

WAZ520-270510-
EAST SLOPES OF WASHINGTON CASCADES

CITY            SKY/WX      TMP DP  RH  WIND    PRES   REMARKS
#BULLFROG 2SW   N/A         37  37  100 CALM    27.58S
#BUMPING DAM    N/A         36  N/A N/A CALM    N/A
#CLE ELUM HS    N/A         35  34  96  CALM    29.94F
#CLE ELUM LAKE  N/A         41  37  86  CALM    29.98S
#CLIFFDEL 2NW   N/A         36  34  92  CALM    N/A
#EASTON DOT     N/A         37  37  100 CALM    N/A
#GLENWOOD       N/A         33  32  96  CALM    30.02S
#MANASTASH CYN  N/A         33  29  85  CALM    29.95F
#NELSON         N/A         33  32  96  CALM    30.06S
#NELSON 3SW     N/A         35  34  96  CALM    30.24S
#NILE           N/A         31  30  96  CALM    29.28S
#PEOH POINT     N/A         45  33  63  CALM    N/A
#RONALD 2NW     N/A         39  30  70  N1      29.84S
#SNOWDEN        N/A         38  30  73  CALM    N/A
#TROUT LAKE 1NE N/A         35  34  96  CALM    30.03S
$$

WAZ521-270510-
SIMCOE HIGHLANDS

CITY            SKY/WX      TMP DP  RH  WIND    PRES   REMARKS
#BICKLETON HS   N/A         56  22  26  W6      N/A
#SATUS PASS DOT N/A         45  22  40  CALM    N/A
#CENTERVILLE 4W N/A         39  37  92  N3      29.73S
#CENTERVILLE 1SWN/A         35  33  92  CALM    30.01S
#GOLDENDALE     N/A         37  37  100 SE7     N/A
#GOLDENDALE 1NE N/A         36  36  100 CALM    N/A
#GOLDENDALE 1S  N/A         41  40  96  CALM    29.96S
#GOLDENDALE 5WNWN/A         37  36  96  CALM    30.02R
#GOODNOE HILLS  N/A         36  33  89  SW3     N/A
#LYLE 6NE       N/A         37  37  100 CALM    30.01R
$$

WAZ026-270510-
KITTITAS VALLEY

CITY            SKY/WX      TMP DP  RH  WIND    PRES   REMARKS
ELLENSBURG AP   FOG         35  33  92  MISG    29.98F VSB 1/4
#ELLENSBURG CWU N/A         35  34  96  CALM    30.00S
#ELLENSBURG 3NE N/A         33  32  96  S1      29.99S
#ELLENSBURG 1E  N/A         34  33  96  CALM    N/A
#KITTITAS 4N    N/A         31  29  92  CALM    28.29F
#KITTITAS 3S    N/A         33  32  96  E1      30.03S
#THORP 6N       N/A         39  38  96  CALM    30.04S
$$

WAZ027-270510-
YAKIMA VALLEY

CITY            SKY/WX      TMP DP  RH  WIND    PRES   REMARKS
YAKIMA AIRPORT  CLOUDY      36  34  92  CALM    30.02F FOG
YAKIMA-VAGABOND FOG         34  34  100 E1      30.00F VSB 3/8
#DONALD 2NE     N/A         36  36  100 CALM    28.87S
#GRANDVIEW      N/A         36  36  100 SW2     30.07F
#MABTON         N/A         37  37  100 CALM    30.03F
#NACHES 2SW     N/A         33  32  96  CALM    29.99S
#TERRACE HTS    N/A         36  35  96  CALM    30.03S
#TOPPENISH      N/A         36  35  96  CALM    29.98S
#WAPATO 4NE     N/A         36  36  100 CALM    28.87S
#WEST VALLEY    N/A         34  33  96  CALM    30.05S
#W YAKIMA       N/A         34  33  96  CALM    30.05F
#WHITE SWAN 5E  N/A         35  34  96  CALM    30.07S
#WILEY CITY 3W  N/A         34  31  89  CALM    30.03S
$$

WAZ028-270510-
LOWER COLUMBIA BASIN...WASHINGTON

CITY            SKY/WX      TMP DP  RH  WIND    PRES   REMARKS
PASCO           CLOUDY      39  39  100 N5      30.05S FOG
PROSSER AWOS    N/A         37  37  100 SW5     30.07S
RICHLAND AWOS   CLOUDY      39  39  100 CALM    30.05S FOG
#BASIN CITY 5SW N/A         38  37  96  CALM    30.03S
#BENTON CITY    N/A         37  36  96  NW2     29.96S
#CONNELL 5N     N/A         36  36  100 CALM    30.06S
#CONNELL 5NW    N/A         36  36  100 CALM    30.02S
#ELTOPIA 6NW    N/A         36  36  100 CALM    28.99F
#KAHLOTUS       N/A         36  36  100 NW6     30.06R
#KENNEWICK      N/A         37  37  100 CALM    27.58S
#KENNEWICK 3S   N/A         38  37  96  CALM    30.06S
#PASCO-BROADMOORN/A         39  37  92  CALM    29.96S
#PATERSON       N/A         36  35  96  CALM    30.05S
#PROSSER DOT    N/A         38  38  100 CALM    N/A
#PROSSER        N/A         37  36  96  SW1     30.05F
#SAGEMOOR 2W    N/A         38  37  96  CALM    29.91R
#TOUCHET 2S     N/A         37  36  96  CALM    30.06S
#WEST PASCO     N/A         40  38  92  CALM    30.01R
$$

WAZ029-270510-
FOOTHILLS OF THE BLUES...WASHINGTON

CITY            SKY/WX      TMP DP  RH  WIND    PRES   REMARKS
WALLA WALLA AP  FOG         37  36  96  CALM    30.01S VSB 1/4
#DAYTON SCHOOL  N/A         36  31  82  CALM    30.01R
#LOWDEN 2SE     N/A         36  35  96  CALM    30.01S
#PLEASANT VIEW 1N/A         35  34  96  CALM    30.09S
#PRESCOTT       N/A         38  37  96  CALM    30.03F
#SUDBURY        N/A         40  N/A N/A CALM    N/A
#WHITMAN COLLEGEN/A         36  36  100 CALM    30.11S
#WAITSBURG 5S   N/A         34  33  96  CALM    30.15R
#WAITSBURG 8N   N/A         35  26  69  S5      29.85S
#WALLA WALLA 5E N/A         37  36  96  CALM    N/A
#WALLA WALLA U  N/A         38  37  96  CALM    30.06S
#WHITMAN MISSIONN/A         37  36  96  CALM    30.07S
$$

WAZ030-270510-
BLUE MOUNTAINS...WASHINGTON

CITY            SKY/WX      TMP DP  RH  WIND    PRES   REMARKS
#DIXIE 5SE      N/A         66  28  24  SW8     30.14S
#SKI BLUEWOOD   N/A         37  32  82  S2      30.04F
$$

ORZ009-041-WAZ024-270510-
COLUMBIA RIVER GORGE

CITY            SKY/WX      TMP DP  RH  WIND    PRES   REMARKS
HOOD RIVER AP   CLOUDY      41  39  93  CALM    30.02S FOG
THE DALLES AP   CLOUDY      42  38  86  NE5     30.05R
#ARLINGTON AIRPON/A         36  36  100 CALM    30.02S
#ARLINGTON HS   N/A         38  37  96  E2      29.98S
#CELILO DOT     N/A         42  36  79  CALM    N/A
#LYLE           N/A         42  40  93  SE5     30.06R
#MARYHILL       N/A         38  N/A N/A NE5     N/A
#MOSIER 1S      N/A         39  38  96  CALM    30.03S
#MURDOCK        N/A         42  41  96  E3      30.07R
#RUFUS DOT      N/A         41  37  86  NE3     N/A

$$

ORZ510-270510-
NORTH CENTRAL OREGON

CITY            SKY/WX      TMP DP  RH  WIND    PRES   REMARKS
#CHENOWITH 1W   N/A         35  35  100 N1      N/A
#COW CYN RST AREN/A         56  35  45  N2      N/A
#DUFUR 9E       N/A         46  38  73  CALM    30.06S
#GRASS VALLEY 1SN/A         40  36  85  CALM    30.05
#KENT DOT       N/A         46  33  60  SE3     N/A
#MAUPIN SCHOOL  N/A         40  38  92  CALM    30.02F
#MORO SCHOOL    N/A         35  35  100 CALM    30.00S
#SHANIKO 5WSW   N/A         57  28  33  N1      N/A
#SHANIKO 4NW    N/A         58  31  36  W1      30.00S
#TYGH VALLEY 2NEN/A         38  37  96  CALM    30.03S
#WAPANITIA AIRPON/A         34  33  96  CALM    30.04R
#WASCO DOT      N/A         39  37  92  NE3     N/A
#WASCO 5NE      N/A         35  34  96  CALM    30.05S
$$

ORZ511-270510-
CENTRAL OREGON

CITY            SKY/WX      TMP DP  RH  WIND    PRES   REMARKS
BEND AIRPORT    PTCLDY      41  36  82  S5      30.02F
MADRAS AIRPORT  N/A         45  39  79  E3      30.00S
PRINEVILLE AP   PTCLDY      52  37  56  CALM    30.02S
REDMOND AIRPORT PTCLDY      43  35  73  E5      30.00S
#BEND 1SW       N/A         41  35  79  SW1     N/A
#BEND-AWBREY    N/A         52  33  48  S5      29.94S
#BEND-KIM LN    N/A         49  36  61  S1      29.98S
#CROOKED RVR RANN/A         50  38  63  NE1     29.93R
#CULVER         N/A         46  37  71  CALM    29.95S
#LAKE BILLY CHINN/A         50  27  41  CALM    30.08S
#POWELL BUTTE 3EN/A         53  37  54  SE5     N/A
#POWELL BUTTE   N/A         56  36  47  SW5     29.64S
#PRINEVILLE 3N  N/A         40  35  82  CALM    29.96S
#WARM SPRINGS   N/A         41  39  93  CALM    29.96R

$$


ORZ509-270510-
EAST SLOPES OF OREGON CASCADES

CITY            SKY/WX      TMP DP  RH  WIND    PRES   REMARKS
#BLUE BOX PASS  N/A         53   0  11  CALM    N/A
#CAMP SHERMAN   N/A         39  36  89  CALM    30.11R
#LA PINE 4NW    N/A         33  26  75  CALM    30.09S
#MT BACHELOR-MIDN/A         43  14  30  N16     N/A    WCI 35
#SISTERS AIRPOR N/A         40  40  100 CALM    30.17S
#SISTERS 3N     N/A         38  30  73  CALM    30.01S
#SUNRIVER       N/A         36  32  85  CALM    29.95R
#TUMALO 3W      N/A         54  31  41  S5      29.82S
#WANOGA BUTTE D N/A         50  10  19  W3      N/A

$$

ORZ044-270510-
LOWER COLUMBIA BASIN...OREGON

CITY            SKY/WX      TMP DP  RH  WIND    PRES   REMARKS
HERMISTON       FOG         38  36  92  CALM    30.03F VSB 1/4
#BOARDMAN 3W    N/A          0   0  100 W2      29.76S
#BOARDMAN 8SW   N/A         38  37  96  CALM    30.05
#ECHO 8SW       N/A         37  37  100 CALM    30.01S
#IONE SCHOOL    N/A         38  28  67  CALM    30.01S
#IRRIGON 4NW    N/A         38  38  100 S1      N/A
#UMATILLA SCHOOLN/A         35  35  100 CALM    30.12R
#UMATILLA       N/A         39  35  85  CALM    30.02S
$$

ORZ507-270510-
NORTHERN FOOTHILLS OF THE BLUES

CITY            SKY/WX      TMP DP  RH  WIND    PRES   REMARKS
PENDLETON AIRPT FOG         34  34  100 NW3     30.00R VSB<1/4
#ADAMS 3WNW     N/A         33  32  96  S1      30.04R
#ATHENA         N/A         32  31  96  E1      30.07S
#CAYUSE         N/A         35  34  96  CALM    30.04R
#HELIX SCHOOL   N/A         36  33  89  SE5     30.02R
#HELIX 3N       N/A         44  38  79  SE8     29.95S
#HELIX 6SW      N/A         34  33  96  CALM    30.00R
#HOLDMAN 5SE    N/A         35  34  96  CALM    30.01R
#HOLDMAN 6E     N/A         33  32  96  CALM    29.85S
#M-F FERNDALE   N/A         36  35  96  CALM    30.02R
#M-F GROVE ELEM N/A         36  34  92  CALM    30.00F
#M-FREEWATER 5SEN/A         35  34  96  CALM    30.01R
#PENDLETON DNTN N/A         38  35  89  CALM    28.82S
#PDT AQUATIC CTRN/A         38  35  89  NW1     30.01S
#PENDLETON 5NE  N/A         35  34  96  CALM    29.97R
#PDT SUNRIDGE   N/A         36  35  96  CALM    30.03R
#PENDLETON 7NW  N/A         37  34  89  CALM    31.44
#PILOT ROCK     N/A         33  29  85  CALM    30.01S
#TUTUILLA       N/A         37  36  96  CALM    30.04R
#UMAPINE 2E     N/A         36  35  96  CALM    30.00S
#WESTON SCHOOL  N/A         32  29  89  W2      29.99R

$$

ORZ508-270510-
SOUTHERN FOOTHILLS OF THE BLUES

CITY            SKY/WX      TMP DP  RH  WIND    PRES   REMARKS
LEXINGTON       FOG         36  36  100 CALM    30.01F VSB<1/4
#AJAX           N/A         42  37  82  S1      29.92S
#CONDON SCHOOL  N/A         50  42  74  CALM    29.95F
#CONDON 5W      N/A         56  34  43  S6      29.98S
#HEPPNER EOC    N/A         44  39  82  E7      29.99S
#HEPPNER 4NE    N/A         46  35  65  E1      29.96F
#LEXINGTON 2SE  N/A         36  34  92  CALM    29.95F
#MIKKALO        N/A         37  37  100 NE1     29.99F
#OLEX 4N        N/A         36  35  96  CALM    30.01F
#RUGGS 5NE      N/A         52  33  48  N2      30.17S
#RUGGS 2SW      N/A         49  36  61  SE2     29.95S

$$

ORZ502-503-270510-
BLUE MOUNTAINS

CITY            SKY/WX      TMP DP  RH  WIND    PRES   REMARKS
MEACHAM         PTCLDY      44  33  65  VRB3    30.04S
#BATTLE MTN DOT N/A         48  35  60  S8      N/A
#HARDMAN 10S    N/A         46  35  65  S3      30.11F
#HEPPNER 15SE   N/A         44  30  58  E1      29.93F
#LADD CYN SMT   N/A         37  30  75  S10     N/A
#LADD CREEK ODOTN/A         40  30  67  SW9     N/A
#LONG CREEK HS  N/A         42  37  82  CALM    29.98S
#N POWDER DOT   N/A         34  32  92  SW5     N/A
#PIKES PEAK     N/A         62  28  27  S13     27.99S
#TOLLGATE       N/A         44  33  65  SW1     29.99S
#TROY SCHOOL    N/A         42  37  82  W6      29.99S
#UKIAH          N/A         37  33  85  CALM    30.12R
#WESTON 4E      N/A         50  35  56  E14     29.92S
$$

ORZ505-270510-
JOHN DAY BASIN

CITY            SKY/WX      TMP DP  RH  WIND    PRES   REMARKS
JOHN DAY        MOCLDY      46  34  63  E8      30.06S
#JOHN DAY KJDY  N/A         42  39  89  CALM    30.14R
#DAYVILLE SCHOOLN/A         48  36  63  CALM    29.99S
#MITCHELL SCHOOLN/A         51  36  56  CALM    30.14S
#MONUMENT HS    N/A         40  34  79  CALM    30.03S
#MT. VERNON 5SE N/A         54  33  45  S7      30.00S
#WINLOCK        N/A         46  34  63  W2      30.09S
$$

ORZ506-270510-
OCHOCO AND JOHN DAY HIGHLANDS

CITY            SKY/WX      TMP DP  RH  WIND    PRES   REMARKS
#HORSE RIDGE DO N/A         38  33  82  SE1     N/A
#KEYES SMT DOT  N/A         42  30  62  SE3     N/A
#PAULINA SCHOOL N/A         35  33  92  CALM    30.02F
#PINE MTN OBS   N/A         51  27  39  SE7     N/A
#PRAIRIE CITY   N/A         43  33  67  NE2     30.12F
#SENECA         N/A         35  N/A N/A W2      N/A
#SENECA 9NW     N/A         32  29  89  CALM    30.14R
$$

ORZ049-270510-
GRANDE RONDE VALLEY

CITY            SKY/WX      TMP DP  RH  WIND    PRES   REMARKS
LA GRANDE       PTCLDY      48  32  54  S16G24  30.06F WCI 42
#COVE           N/A         36  30  79  E2      30.03S
#COVE SCHOOL    N/A         36  32  85  E1      30.05F
#COVE 6NW       N/A         42  35  76  SE2     30.16F
#ELGIN 3N       N/A         36  27  69  NE1     29.89F
#ELGIN 1E       N/A         40  33  76  CALM    N/A
#IMBLER SCHOOL  N/A         41  34  76  S5      30.04F
#ISLAND CITY 4N N/A         43  43  100 CALM    29.97S
#LADD CYN DOT   N/A         44  32  62  S18G29  N/A    WCI 36
#UNION 1S       N/A         42  35  76  S10     30.04F
$$

ORZ050-270510-
WALLOWA COUNTY

CITY            SKY/WX      TMP DP  RH  WIND    PRES   REMARKS
#ENTERPRISE HS  N/A         31  29  92  CALM    30.09F
#IMNAHA SCHOOL  N/A         52  37  56  W5      30.05S
#IMNAHA 10S     N/A         43  35  73  CALM    30.05F
#JOSEPH 3N      N/A         29  29  100 NE1     30.11F
#JOSEPH 3W      N/A         36  28  72  SW2     29.91F
#LOSTINE        N/A         31  29  92  CALM    30.00F
#MT HOWARD 8000 N/A         45  16  31  CALM    30.19F
#PROMISE 1S     N/A         35  33  92  CALM    30.27R
#SHEEP RDG 7000 N/A         50  14  23  CALM    29.90S
#WALLOWA SCHOOL N/A         29  28  96  CALM    31.17S



$$



USA.gov is the U.S. government's official web portal to all federal, state and local government web resources and services.